G7JIF Weather Reports


time (UTC)temp
F
wind
direction
speed
knots
gust
knots
rain 1hr
in
rain 24hr
in
rain mn
in
humidity
%
barometer
mb
20200217091207 43 225 3.5 7.8 0.00 0.00 0.00 86 1003.8
20200217090708 43 180 3.5 7.8 0.00 0.00 0.00 86 1003.8
20200217090208 43 248 3.5 8.7 0.00 0.00 0.00 86 1003.8
20200217085715 43 68 5.2 8.7 0.00 0.00 0.00 86 1003.8
20200217085207 42 248 6.1 8.7 0.00 0.00 0.00 87 1004.8
20200217084718 42 158 4.3 7.8 0.00 0.00 0.00 87 1004.8
20200217084208 42 158 4.3 7.8 0.00 0.00 0.00 87 1004.8
20200217083713 42 248 3.5 7.8 0.00 0.00 0.00 87 1003.8
20200217083207 42 270 7.8 7.0 0.00 0.00 0.00 87 1003.8
20200217082716 42 158 4.3 7.0 0.00 0.00 0.00 87 1003.8
20200217082208 42 180 7.0 7.0 0.00 0.00 0.00 88 1003.8
20200217081737 41 180 7.0 7.8 0.00 0.00 0.00 88 1003.8
20200217081208 41 180 6.1 7.8 0.00 0.00 0.00 88 1003.8
20200217080707 41 248 3.5 7.8 0.00 0.00 0.00 88 1003.8
20200217080208 40 180 7.8 5.2 0.00 0.00 0.00 89 1003.8
20200217075707 40 202 3.5 5.2 0.00 0.00 0.00 89 1003.8
20200217075208 40 202 5.2 5.2 0.00 0.00 0.00 89 1003.8
20200217074721 40 158 3.5 4.3 0.00 0.00 0.00 89 1003.8
20200217074210 40 248 4.3 4.3 0.00 0.00 0.00 89 1003.8
20200217073710 40 180 3.5 3.5 0.00 0.00 0.00 88 1002.8
20200217073207 40 248 3.5 3.5 0.00 0.00 0.00 88 1002.8
20200217072707 40 248 3.5 3.5 0.00 0.00 0.00 88 1002.8
20200217072209 39 248 3.5 3.5 0.00 0.00 0.00 88 1002.8
20200217071708 39 248 3.5 3.5 0.00 0.00 0.00 88 1002.8
20200217071207 39 158 2.6 2.6 0.00 0.00 0.00 88 1002.8
20200217070712 39 180 2.6 2.6 0.00 0.00 0.00 88 1002.8
20200217070208 39 180 1.7 1.7 0.00 0.00 0.00 88 1002.8
20200217065708 39 270 1.7 9.6 0.00 0.00 0.00 88 1002.8
20200217065207 39 158 1.7 9.6 0.00 0.00 0.00 88 1002.8
20200217064709 39 202 1.7 9.6 0.00 0.00 0.00 88 1002.8
20200217064208 39 158 9.6 9.6 0.00 0.00 0.00 88 1002.8
20200217063722 39 158 9.6 9.6 0.00 0.00 0.00 88 1002.8
20200217063207 39 158 9.6 6.1 0.00 0.00 0.00 88 1002.8
20200217062707 39 135 3.5 6.1 0.00 0.00 0.00 87 1002.8
20200217062208 39 202 6.1 7.8 0.00 0.00 0.00 87 1002.8
20200217061708 39 202 3.5 7.8 0.00 0.00 0.00 87 1002.8
20200217061208 39 225 3.5 7.8 0.00 0.00 0.00 86 1002.8
20200217060707 39 225 5.2 5.2 0.00 0.00 0.00 86 1002.8
20200217060208 39 225 5.2 5.2 0.00 0.00 0.00 86 1002.8
20200217055722 40 135 5.2 9.6 0.00 0.00 0.00 84 1002.8
20200217055207 40 135 5.2 9.6 0.00 0.00 0.00 84 1002.8
20200217054713 40 180 2.6 9.6 0.00 0.00 0.00 84 1002.8
20200217054208 41 158 9.6 9.6 0.00 0.00 0.00 83 1002.8
20200217053707 41 158 9.6 9.6 0.00 0.00 0.00 83 1002.8
20200217053208 42 248 7.0 7.0 0.00 0.00 0.00 82 1002.8
20200217052707 42 338 7.0 9.6 0.00 0.00 0.00 82 1002.8
20200217052208 42 270 5.2 9.6 0.00 0.00 0.00 81 1002.8
20200217051708 44 0 3.5 9.6 0.00 0.00 0.00 82 1002.8
20200217051208 44 180 9.6 7.8 0.00 0.00 0.00 82 1002.8
20200217050707 44 225 2.6 7.8 0.00 0.00 0.00 82 1002.8
20200217050208 44 202 2.6 7.8 0.00 0.00 0.00 82 1002.8
20200217045716 44 22 7.8 7.0 0.00 0.00 0.00 83 1002.8
20200217045211 44 292 5.2 5.2 0.00 0.00 0.00 83 1002.8
20200217044705 44 292 5.2 7.0 0.00 0.00 0.00 83 1002.8
20200217044209 44 68 4.3 7.0 0.00 0.00 0.00 83 1002.8
20200217043724 44 270 3.5 7.0 0.00 0.00 0.00 83 1002.8
20200217043208 44 158 3.5 5.2 0.00 0.00 0.00 83 1002.8
20200217042707 44 225 3.5 5.2 0.00 0.00 0.00 83 1002.8
20200217042208 43 225 3.5 5.2 0.00 0.00 0.00 83 1002.8
20200217041708 43 180 5.2 5.2 0.00 0.00 0.00 83 1002.8
20200217041207 43 180 5.2 8.7 0.00 0.00 0.00 83 1002.8
20200217040707 43 248 5.2 8.7 0.00 0.00 0.00 83 1002.8
20200217040210 43 248 5.2 13.0 0.00 0.00 0.00 82 1002.8
20200217035708 43 202 8.7 13.0 0.00 0.00 0.00 82 1002.8
20200217035209 43 225 8.7 13.0 0.00 0.00 0.00 82 1002.8
20200217034738 43 180 13.0 8.7 0.00 0.00 0.00 82 1002.8
20200217034208 44 225 5.2 12.2 0.00 0.00 0.00 82 1002.8
20200217033716 44 225 6.1 12.2 0.00 0.00 0.00 82 1002.8
20200217033208 44 202 8.7 12.2 0.00 0.00 0.00 82 1002.8
20200217032714 44 202 12.2 12.2 0.00 0.00 0.00 82 1002.8
20200217032209 43 202 12.2 12.2 0.00 0.00 0.00 82 1002.8
20200217031708 43 202 12.2 7.0 0.00 0.00 0.00 82 1002.8
20200217031207 43 135 4.3 11.3 0.00 0.00 0.00 82 1002.8
20200217030707 43 202 4.3 11.3 0.00 0.00 0.00 82 1002.8
20200217030208 43 202 7.0 11.3 0.00 0.00 0.00 82 1002.8
20200217025707 43 135 4.3 7.8 0.00 0.00 0.00 83 1002.8
20200217025207 43 225 6.1 7.8 0.00 0.00 0.00 82 1002.8
20200217024720 43 158 7.0 7.8 0.00 0.00 0.00 82 1002.8
20200217024208 43 158 7.0 7.8 0.00 0.00 0.00 82 1002.8
20200217023706 43 180 7.8 10.4 0.00 0.00 0.00 82 1002.8
20200217023207 42 180 7.8 10.4 0.00 0.00 0.00 82 1002.8
20200217022709 42 202 7.0 10.4 0.00 0.00 0.00 81 1002.8
20200217022208 42 112 5.2 10.4 0.00 0.00 0.00 81 1002.8
20200217021709 42 202 3.5 4.3 0.00 0.00 0.00 81 1002.8
20200217021207 42 202 3.5 5.2 0.00 0.00 0.00 81 1002.8
20200217020724 42 292 4.3 5.2 0.00 0.00 0.00 81 1002.8
20200217020208 42 202 4.3 5.2 0.00 0.00 0.00 81 1002.8
20200217015712 42 68 5.2 7.0 0.00 0.00 0.00 81 1002.8
20200217015207 42 180 5.2 7.0 0.00 0.00 0.00 81 1002.8
20200217014708 42 180 5.2 7.0 0.00 0.00 0.00 81 1002.8
20200217014208 42 225 4.3 8.7 0.00 0.00 0.00 81 1002.8
20200217013707 42 202 4.3 9.6 0.00 0.00 0.00 81 1002.8
20200217013207 42 135 3.5 9.6 0.00 0.00 0.00 82 1002.8
20200217012707 42 202 6.1 9.6 0.00 0.00 0.00 83 1002.8
20200217012209 42 225 8.7 11.3 0.00 0.00 0.00 83 1002.8
20200217011708 42 270 5.2 11.3 0.00 0.00 0.00 83 1002.8
20200217011207 42 135 5.2 11.3 0.00 0.00 0.00 83 1002.8
20200217010709 42 180 11.3 11.3 0.00 0.00 0.00 83 1002.8
20200217010208 42 202 5.2 8.7 0.00 0.00 0.00 83 1002.8
20200217005719 42 202 6.1 8.7 0.00 0.00 0.00 83 1002.8
20200217005211 42 135 2.6 8.7 0.00 0.00 0.00 84 1002.8
20200217004707 41 180 5.2 8.7 0.00 0.00 0.00 86 1002.8
20200217004209 41 135 7.8 10.4 0.00 0.00 0.00 87 1002.8
20200217003707 41 135 7.8 10.4 0.00 0.00 0.00 87 1002.8
20200217003209 41 158 8.7 10.4 0.00 0.00 0.00 88 1002.8
20200217002707 41 202 6.1 5.2 0.00 0.00 0.00 88 1002.8
20200217002210 41 248 2.6 7.8 0.00 0.00 0.00 89 1002.8
20200217001730 41 135 5.2 7.8 0.00 0.00 0.00 89 1002.8
20200217001212 41 135 5.2 7.8 0.00 0.00 0.00 89 1002.8
20200217000707 40 45 7.8 5.2 0.00 0.00 0.00 90 1002.8
20200217000208 40 68 2.6 5.2 0.00 0.00 0.00 90 1002.8
20200216235736 40 180 5.2 5.2 0.00 0.00 0.00 91 1002.8
20200216235207 40 180 5.2 7.8 0.00 0.00 0.00 91 1002.8
20200216234709 40 180 5.2 7.8 0.00 0.00 0.00 92 1002.8
20200216234208 40 180 5.2 7.8 0.00 0.00 0.00 92 1002.8
20200216233710 40 270 7.8 7.8 0.00 0.00 0.00 92 1002.8
20200216233207 40 202 4.3 5.2 0.00 0.00 0.00 92 1002.8
20200216232719 40 180 3.5 5.2 0.00 0.00 0.00 92 1002.8
20200216232208 39 202 5.2 5.2 0.00 0.00 0.00 92 1002.8
20200216231708 39 202 5.2 5.2 0.00 0.00 0.00 92 1002.8
20200216231207 39 180 1.7 2.6 0.00 0.00 0.00 92 1002.8
20200216230707 39 202 1.7 2.6 0.00 0.00 0.00 92 1001.8
20200216230208 39 158 1.7 4.3 0.00 0.00 0.00 92 1001.8
20200216225708 39 202 2.6 4.3 0.00 0.00 0.00 92 1001.8
20200216225207 39 158 2.6 5.2 0.00 0.00 0.00 92 1001.8
20200216224709 39 202 1.7 5.2 0.00 0.00 0.00 91 1001.8
20200216224224 39 225 1.7 5.2 0.00 0.00 0.00 91 1001.8
20200216223710 39 202 5.2 4.3 0.00 0.00 0.00 91 1001.8
20200216223208 39 180 0.9 4.3 0.00 0.00 0.00 91 1001.8
20200216222707 39 270 4.3 3.5 0.00 0.00 0.00 91 1001.8
20200216222209 39 135 1.7 3.5 0.00 0.00 0.00 91 1001.8
20200216221708 39 225 2.6 3.5 0.00 0.00 0.00 91 1001.8
20200216221208 40 180 3.5 3.5 0.00 0.00 0.00 91 1001.8
20200216220707 40 135 2.6 3.5 0.00 0.00 0.00 91 1001.8
20200216220208 40 68 1.7 3.5 0.00 0.00 0.00 91 1001.8
20200216215716 40 22 0.9 3.5 0.00 0.00 0.00 91 1001.8
20200216215207 40 180 3.5 3.5 0.00 0.00 0.00 91 1000.8
20200216214711 40 112 2.6 8.7 0.00 0.00 0.00 91 1000.8
20200216214210 40 158 3.5 8.7 0.00 0.00 0.00 91 1000.8
20200216213707 41 180 1.7 8.7 0.00 0.00 0.00 92 1000.8
20200216213208 41 45 2.6 4.3 0.00 0.00 0.00 92 1000.8
20200216212707 40 158 4.3 4.3 0.00 0.00 0.00 92 1000.8
20200216212208 40 158 4.3 4.3 0.00 0.00 0.00 92 1000.8
20200216211706 40 180 3.5 3.5 0.00 0.00 0.00 92 1000.8
20200216211211 40 202 2.6 3.5 0.00 0.00 0.00 92 1000.8
20200216210707 40 158 0.9 3.5 0.00 0.00 0.00 92 999.8
20200216210208 40 90 3.5 3.5 0.00 0.00 0.00 92 999.8
20200216205707 40 180 0.9 5.2 0.00 0.00 0.00 92 999.8
20200216205208 40 292 2.6 5.2 0.00 0.00 0.00 92 999.8
20200216204730 40 292 2.6 5.2 0.00 0.00 0.00 91 999.8
20200216204208 40 225 5.2 5.2 0.00 0.00 0.00 91 999.8
20200216203710 40 225 5.2 5.2 0.00 0.00 0.00 91 998.8
20200216203207 40 112 4.3 4.3 0.00 0.00 0.00 91 998.8
20200216202707 40 112 4.3 3.5 0.00 0.00 0.00 91 998.8
20200216202208 40 202 3.5 3.5 0.00 0.00 0.00 91 998.8
20200216201731 40 202 3.5 3.5 0.00 0.00 0.00 91 998.8
20200216201208 41 202 3.5 3.5 0.00 0.00 0.00 91 998.8
20200216200707 41 45 2.6 2.6 0.00 0.00 0.00 91 998.8
20200216200209 41 180 2.6 2.6 0.00 0.00 0.00 90 998.8
20200216195716 42 180 2.6 0.0 0.00 0.00 0.00 88 998.8
20200216195207 42 292 3.5 3.5 0.00 0.00 0.00 88 998.8
20200216194709 42 292 3.5 7.0 0.00 0.00 0.00 88 998.8
20200216194208 42 292 3.5 7.8 0.00 0.00 0.00 88 998.8
20200216193709 43 292 3.5 7.8 0.00 0.00 0.00 87 998.8
20200216193207 43 225 3.5 7.8 0.00 0.00 0.00 87 998.8
20200216192707 43 270 7.8 7.8 0.00 0.00 0.00 87 998.8
20200216192211 43 135 4.3 5.2 0.00 0.00 0.00 88 997.7
20200216191708 43 248 2.6 5.2 0.00 0.00 0.00 89 997.7
20200216191214 43 180 3.5 5.2 0.00 0.00 0.00 89 997.7
20200216190707 43 180 3.5 13.0 0.00 0.00 0.00 89 996.7
20200216190209 43 180 3.5 13.0 0.00 0.00 0.00 89 996.7
20200216185707 43 202 5.2 13.0 0.00 0.00 0.00 90 996.7
20200216185235 43 225 13.0 13.9 0.00 0.00 0.00 90 996.7
20200216184715 43 158 5.2 13.9 0.00 0.00 0.00 91 996.7
20200216184208 43 158 3.5 13.9 0.00 0.00 0.00 91 996.7
20200216183718 43 180 13.9 13.9 0.00 0.00 0.00 92 995.7
20200216183207 43 180 7.0 9.6 0.00 0.00 0.00 92 995.7
20200216182729 43 180 7.0 9.6 0.00 0.00 0.00 92 995.7
20200216182208 43 248 7.8 7.8 0.00 0.00 0.00 94 995.7
20200216181706 43 180 3.5 7.8 0.00 0.00 0.00 94 995.7
20200216181207 43 180 3.5 7.8 0.00 0.00 0.00 94 995.7
20200216180707 43 202 7.8 8.7 0.00 0.00 0.00 94 995.7
20200216180208 43 202 7.0 8.7 0.00 0.00 0.00 95 995.7
20200216175707 43 202 8.7 8.7 0.00 0.00 0.00 95 995.7
20200216175208 43 202 5.2 7.0 0.00 0.00 0.00 95 994.7
20200216174708 43 202 5.2 7.0 0.00 0.00 0.00 95 994.7
20200216174210 43 225 7.0 7.0 0.00 0.00 0.00 95 994.7
20200216173707 43 225 7.0 4.3 0.00 0.00 0.00 95 994.7
20200216173209 43 158 4.3 5.2 0.00 0.00 0.00 95 994.7
20200216172708 44 225 3.5 6.1 0.00 0.00 0.00 96 994.7
20200216172210 44 225 5.2 6.1 0.00 0.00 0.00 96 994.7
20200216171708 44 158 3.5 6.1 0.00 0.00 0.00 96 994.7
20200216171207 44 202 6.1 9.6 0.00 0.00 0.00 96 994.7
20200216170707 44 180 4.3 9.6 0.00 0.00 0.00 96 994.7
20200216170208 44 202 3.5 9.6 0.00 0.00 0.00 97 994.7
20200216165714 44 180 5.2 7.0 0.00 0.00 0.00 97 994.7
20200216165207 45 225 4.3 7.0 0.00 0.00 0.00 96 993.7
20200216164708 45 180 2.6 7.0 0.00 0.00 0.00 97 993.7
20200216164208 45 180 7.0 7.0 0.00 0.00 0.00 97 993.7
20200216163707 45 180 5.2 7.0 0.00 0.00 0.00 97 993.7
20200216163207 45 180 5.2 7.0 0.00 0.00 0.00 97 993.7
20200216162707 46 202 7.0 7.0 0.00 0.00 0.00 98 993.7
20200216162211 46 112 3.5 5.2 0.00 0.00 0.00 98 993.7
20200216161733 46 180 4.3 5.2 0.00 0.00 0.00 98 993.7
20200216161208 46 158 3.5 5.2 0.00 0.00 0.00 98 993.7
20200216160707 46 180 5.2 3.5 0.00 0.00 0.00 98 993.7
20200216160208 46 225 3.5 5.2 0.00 0.00 0.00 98 993.7
20200216155707 46 225 3.5 6.1 0.00 0.00 0.00 98 993.7
20200216155207 46 248 3.5 6.1 0.00 0.00 0.00 98 992.7
20200216154708 46 202 5.2 6.1 0.00 0.00 0.00 98 992.7
20200216154209 46 225 1.7 3.5 0.00 0.00 0.00 98 992.7
20200216153713 46 202 3.5 4.3 0.00 0.00 0.00 98 992.7
20200216153207 46 180 0.9 7.0 0.00 0.00 0.00 98 992.7
20200216152707 46 180 4.3 7.0 0.00 0.00 0.00 98 992.7
20200216152208 46 225 3.5 7.0 0.00 0.00 0.00 98 992.7
20200216151708 46 225 1.7 6.1 0.00 0.00 0.00 98 992.7
20200216151214 46 225 1.7 9.6 0.00 0.00 0.00 98 992.7
20200216150707 46 338 1.7 9.6 0.00 0.00 0.00 98 992.7
20200216150209 46 225 6.1 9.6 0.00 0.00 0.00 98 992.7
20200216145708 46 225 9.6 9.6 0.00 0.00 0.00 98 992.7
20200216145207 46 225 9.6 7.0 0.00 0.00 0.00 98 991.7
20200216144716 46 270 4.3 7.0 0.00 0.00 0.00 98 991.7
20200216144210 46 180 7.0 6.1 0.00 0.00 0.00 98 991.7
20200216143717 45 202 2.6 6.1 0.00 0.00 0.00 98 991.7
20200216143207 45 202 2.6 6.1 0.00 0.00 0.00 98 991.7
20200216142707 45 180 3.5 6.1 0.00 0.00 0.00 98 991.7
20200216142208 45 202 2.6 4.3 0.00 0.00 0.00 98 991.7
20200216141709 45 180 2.6 5.2 0.00 0.00 0.00 98 991.7
20200216141207 45 158 1.7 5.2 0.00 0.00 0.00 98 991.7
20200216140707 45 180 5.2 6.1 0.00 0.00 0.00 98 991.7
20200216140213 45 225 5.2 6.1 0.00 0.00 0.00 98 991.7
20200216135714 45 180 2.6 6.1 0.00 0.00 0.00 98 991.7
20200216135207 45 180 2.6 6.1 0.00 0.00 0.00 98 991.7
20200216134721 45 202 2.6 1.7 0.00 0.00 0.00 98 991.7
20200216134206 45 180 1.7 1.7 0.00 0.00 0.00 98 991.7
20200216133726 45 158 1.7 8.7 0.00 0.00 0.00 98 991.7
20200216133211 45 158 1.7 8.7 0.00 0.00 0.00 98 991.7
20200216132708 45 180 8.7 8.7 0.00 0.00 0.00 98 991.7
20200216132216 45 180 8.7 5.2 0.00 0.00 0.00 98 991.7
20200216131708 45 158 2.6 5.2 0.00 0.00 0.00 98 991.7
20200216131209 45 158 2.6 5.2 0.00 0.00 0.00 98 991.7
20200216130709 45 202 5.2 5.2 0.00 0.00 0.00 98 991.7
20200216130208 45 180 2.6 3.5 0.00 0.00 0.00 98 991.7
20200216125708 45 180 2.6 3.5 0.00 0.00 0.00 98 991.7
20200216125207 45 225 2.6 3.5 0.00 0.00 0.00 98 991.7
20200216124752 45 45 3.5 6.1 0.00 0.00 0.00 98 991.7
20200216124217 45 45 3.5 6.1 0.00 0.00 0.00 98 991.7
20200216123736 45 202 6.1 6.1 0.00 0.00 0.00 98 991.7
20200216123210 45 202 6.1 2.6 0.00 0.00 0.00 98 991.7
20200216122712 46 135 2.6 2.6 0.00 0.00 0.00 98 991.7
20200216122210 46 315 2.6 2.6 0.00 0.00 0.00 98 991.7
20200216121730 46 338 1.7 2.6 0.00 0.00 0.00 98 991.7
20200216121208 46 270 2.6 0.0 0.00 0.00 0.00 98 991.7
20200216120706 46 202 2.6 2.6 0.00 0.00 0.00 98 990.7
20200216120208 46 202 2.6 2.6 0.00 0.00 0.00 98 990.7
20200216115707 46 202 2.6 2.6 0.00 0.00 0.00 98 990.7
20200216115207 46 202 2.6 4.3 0.00 0.00 0.00 98 990.7
20200216114717 47 202 2.6 4.3 0.00 0.00 0.00 98 990.7
20200216114208 47 202 2.6 4.3 0.00 0.00 0.00 98 990.7
20200216113721 47 158 0.9 7.0 0.00 0.00 0.00 98 990.7
20200216113207 47 158 0.9 7.0 0.00 0.00 0.00 98 990.7
20200216112709 47 270 0.0 7.0 0.00 0.00 0.00 98 990.7
20200216112219 47 292 7.0 3.5 0.00 0.00 0.00 98 990.7
20200216111708 47 180 3.5 3.5 0.00 0.00 0.00 98 990.7
20200216111209 47 202 1.7 0.0 0.00 0.00 0.00 98 990.7
20200216110707 48 202 1.7 0.0 0.00 0.00 0.00 98 990.7
20200216110208 48 202 1.7 0.0 0.00 0.00 0.00 98 990.7
20200216105715 48 202 1.7 0.0 0.00 0.00 0.00 98 990.7
20200216105208 48 202 1.7 0.0 0.00 0.00 0.00 98 990.7
20200216104708 48 202 1.7 0.0 0.00 0.00 0.00 98 990.7
20200216104208 48 202 1.7 1.7 0.00 0.00 0.00 98 990.7
20200216103707 48 202 1.7 1.7 0.00 0.00 0.00 98 990.7
20200216103208 49 202 1.7 5.2 0.00 0.00 0.00 98 990.7
20200216102716 49 202 1.7 5.2 0.00 0.00 0.00 98 990.7
20200216102207 49 202 1.7 5.2 0.00 0.00 0.00 98 990.7
20200216101727 49 158 5.2 5.2 0.00 0.00 0.00 98 990.7
20200216101208 49 248 5.2 5.2 0.00 0.00 0.00 98 990.7
20200216100707 49 248 5.2 5.2 0.00 0.00 0.00 98 990.7
20200216100208 49 248 5.2 5.2 0.00 0.00 0.00 98 990.7
20200216095712 49 248 5.2 5.2 0.00 0.00 0.00 98 990.7
20200216095207 49 202 4.3 5.2 0.00 0.00 0.00 98 990.7
20200216094714 49 202 5.2 5.2 0.00 0.00 0.00 98 990.7
20200216094208 49 202 5.2 5.2 0.00 0.00 0.00 98 990.7
20200216093712 49 180 4.3 5.2 0.00 0.00 0.00 98 990.7
20200216093208 49 180 5.2 8.7 0.00 0.00 0.00 98 990.7
20200216092707 49 180 5.2 8.7 0.00 0.00 0.00 98 990.7
20200216092214 49 180 5.2 8.7 0.00 0.00 0.00 98 990.7